This is the latest recevied weather packets stored in our database for station/object N2WH. If no packets are shown the sender has not sent any weather packets the latest 10 day(s).
| Time | Temp. | Humidity | Pressure | Rain* | Wind** | Luminosity | Snow |
|---|---|---|---|---|---|---|---|
| 1777178237 | 3.89° C | 99% | 1018.4 hPa | 0 mm | - | 0 W/m² | - |
| 1777177935 | 3.89° C | 99% | 1018.5 hPa | 1.78 mm | - | 0 W/m² | - |
| 1777177629 | 3.89° C | 99% | 1018.4 hPa | 1.78 mm | - | 0 W/m² | - |
| 1777177325 | 3.89° C | 99% | 1018.7 hPa | 0 mm | - | 0 W/m² | - |
| 1777177023 | 3.89° C | 99% | 1018.6 hPa | 1.78 mm | - | 0 W/m² | - |
| 1777176719 | 3.89° C | 99% | 1018.4 hPa | 3.05 mm | - | 0 W/m² | - |
| 1777176416 | 3.89° C | 99% | 1018.7 hPa | 1.27 mm | - | 0 W/m² | - |
| 1777176112 | 3.89° C | 99% | 1018.7 hPa | 0 mm | - | 0 W/m² | - |
| 1777175811 | 3.89° C | 99% | 1018.7 hPa | 0 mm | - | 0 W/m² | - |
| 1777175505 | 3.89° C | 99% | 1018.5 hPa | 0 mm | - | 0 W/m² | - |
| 1777175199 | 3.89° C | 99% | 1018.5 hPa | 1.78 mm | - | 0 W/m² | - |
| 1777174897 | 3.89° C | 99% | 1018.7 hPa | 1.78 mm | - | 0 W/m² | - |
| 1777174592 | 3.89° C | 99% | 1018.6 hPa | 0 mm | - | 0 W/m² | - |
| 1777174287 | 3.89° C | 99% | 1018.7 hPa | 1.27 mm | - | 0 W/m² | - |
| 1777173982 | 3.89° C | 99% | 1018.6 hPa | 3.05 mm | - | 0 W/m² | - |
| 1777173679 | 3.89° C | 99% | 1018.7 hPa | 1.78 mm | - | 0 W/m² | - |
| 1777173373 | 3.89° C | 99% | 1018.7 hPa | 1.27 mm | - | 0 W/m² | - |
| 1777173068 | 3.89° C | 99% | 1018.7 hPa | 1.27 mm | - | 0 W/m² | - |
| 1777172766 | 3.89° C | 99% | 1019 hPa | 0 mm | - | 0 W/m² | - |
| 1777172463 | 3.89° C | 99% | 1018.9 hPa | 1.78 mm | - | 0 W/m² | - |
| 1777172157 | 3.89° C | 99% | 1018.8 hPa | 4.83 mm | - | 0 W/m² | - |
| 1777171854 | 3.89° C | 99% | 1018.9 hPa | 3.05 mm | - | 0 W/m² | - |
| 1777171550 | 3.89° C | 99% | 1019.1 hPa | 1.27 mm | - | 0 W/m² | - |
| 1777171246 | 3.89° C | 99% | 1019.2 hPa | 3.05 mm | - | 0 W/m² | - |
| 1777170945 | 3.89° C | 99% | 1019 hPa | 3.05 mm | - | 0 W/m² | - |
* Rain latest hour (hover to see other rain measurements)
** Current wind speed in m/s (hover to see current wind gust speed)